Lid_Strength_Index
7 7 7 8 8 7 8 7 9 8 8 7 7 7 6 5 4 4 4 4 3 3 3 2 2 2 1 1 1 0 1 1 1 0 0 -0 0 -0 -0 -0 -0 -0 -0 -0
9 7 7 9 8 7 7 7 7 7 7 6 6 5 6 5 5 5 4 4 3 3 3 3 2 2 2 1 1 1 1 1 1 0 0 0 0 0 -0 -0 -0 -0 0 -0
11 7 8 11 8 7 7 6 7 9 8 6 7 6 6 5 5 5 4 4 3 3 3 2 2 2 2 1 1 1 1 1 1 1 1 1 0 0 0 0 0 0 0 -0
10 9 14 8 6 7 8 7 6 7 7 7 6 5 5 4 4 4 4 4 3 3 2 2 1 1 1 1 1 1 1 1 1 1 1 1 1 1 1 0 0 0 0 0
11 10 8 7 7 8 9 8 7 7 7 6 5 5 5 4 3 3 3 2 2 2 2 1 1 1 1 1 1 1 2 1 1 1 1 1 1 1 1 1 1 1 0 0
9 12 12 9 7 6 6 11 7 6 7 7 6 9 7 4 3 3 2 2 2 2 1 1 1 1 1 2 2 2 1 1 1 0 1 1 1 1 0 0 1 1 0 0
10 11 9 7 6 5 12 11 7 6 6 6 7 6 4 3 3 2 2 2 1 1 2 1 1 1 2 2 2 1 1 1 1 1 1 0 1 0 0 1 0 1 1 1
10 12 13 6 6 9 8 5 5 5 5 5 5 4 4 3 3 2 2 2 1 2 2 1 1 1 2 2 1 1 1 1 1 1 1 1 1 1 0 1 1 2 1 1
9 10 6 5 5 4 4 5 5 4 4 4 4 4 3 3 3 2 2 2 1 1 1 1 1 1 2 1 1 1 1 1 1 1 1 1 1 1 2 2 2 2 2 2
8 6 5 5 4 4 3 4 3 3 3 3 4 3 3 3 2 2 2 2 1 1 2 2 1 1 1 1 0 1 1 1 1 2 2 1 1 1 2 2 2 2 2 2
7 5 5 4 4 3 3 3 3 2 3 3 3 3 3 3 2 2 2 2 1 2 2 2 1 1 0 0 0 1 1 2 2 3 3 4 3 1 1 1 2 2 2 1
8 5 5 5 3 3 3 3 3 3 3 2 2 3 2 3 2 2 2 2 2 2 2 1 1 1 1 0 0 1 2 2 2 2 2 3 3 5 10 10 11 11 10 5
5 4 4 3 3 2 3 3 3 3 2 3 2 2 2 2 2 2 2 2 2 2 1 1 1 1 1 0 0 1 2 1 2 2 2 2 2 2 5 7 11 11 12 12
3 3 5 4 4 3 3 3 2 2 2 2 2 2 2 3 2 2 2 2 1 1 1 1 1 1 0 0 0 1 1 5 1 1 2 2 2 2 2 2 4 4 10 9
4 3 3 3 3 3 2 3 3 3 3 3 2 3 2 3 3 3 2 1 1 1 1 1 1 1 0 0 1 1 1 1 1 1 1 2 1 1 1 2 2 3 2 7
3 3 3 4 4 3 3 3 4 4 3 3 3 3 3 3 2 3 2 2 3 3 2 1 1 1 0 0 1 1 1 2 2 1 2 2 2 3 2 2 2 2 2 2
5 5 4 4 4 4 3 3 3 3 3 3 3 3 3 3 3 3 3 2 2 2 1 1 1 0 1 0 1 1 1 1 2 1 2 2 2 2 2 3 2 2 2 2
3 3 3 3 4 4 3 3 3 3 4 3 3 3 3 3 4 3 3 2 2 2 1 1 1 0 1 0 1 1 1 1 1 1 1 2 1 1 2 2 2 2 1 2
3 3 3 3 3 3 3 3 3 3 3 3 3 4 3 3 3 3 3 3 3 3 2 1 1 1 1 1 1 1 1 1 2 2 1 2 2 2 2 1 1 1 1 1
3 2 2 3 2 3 3 3 3 3 2 3 3 4 4 3 3 3 3 3 3 2 1 0 0 1 1 1 1 1 1 1 2 2 2 2 2 2 2 3 2 1 1 1
3 3 3 3 3 2 3 3 3 4 3 2 3 4 4 3 2 2 3 4 2 1 1 1 1 1 1 1 1 1 1 1 2 2 2 2 2 2 2 2 1 1 1 1
3 3 3 3 3 3 3 3 3 3 3 3 3 3 3 3 3 2 2 2 1 4 1 1 1 1 1 2 1 1 1 1 2 1 2 2 2 2 2 2 1 1 1 0
3 3 3 3 3 3 3 3 3 3 3 3 3 3 3 2 2 3 4 1 1 2 1 1 3 4 3 1 1 1 1 1 2 2 2 2 2 2 1 1 1 1 0 0
3 2 3 2 2 3 4 3 3 3 3 2 2 2 2 3 2 1 1 3 5 3 1 1 2 4 5 1 1 1 1 1 1 2 2 5 1 1 1 1 1 1 1 1
3 2 3 3 4 5 4 4 4 3 3 3 2 2 2 1 2 2 1 1 5 2 1 5 5 5 1 1 1 1 1 1 1 2 2 2 1 1 1 1 1 1 1 2
3 3 3 3 3 4 4 5 4 3 3 3 3 2 2 1 1 2 1 2 1 2 2 1 1 1 1 1 1 1 1 1 1 1 2 2 2 1 1 1 2 2 2 2
2 5 3 3 4 4 5 6 5 5 4 3 3 2 2 2 2 3 3 2 2 1 2 3 3 4 3 3 4 4 4 4 4 3 4 3 2 3 3 4 5 6 6 7